Location: Le Hiès Ruisseau
(43.3000°N, 0.4500°W)
Time: 12:30:38
(UTC+00:00)

Cosmos 1975 Rocket - Pass Details

Date: 28 January 2023
Orbit: 602 x 633 km, 82.5° (Epoch: 19 March)

Event Time Altitude Azimuth Distance (km) Brightness Sun altitude
Rises 18:08:37 0° 203° (SSW) 2,915 7.1 -11.2°
Reaches altitude 10° 18:10:57 10° 210° (SSW) 2,011 6.3 -11.6°
Maximum altitude 18:15:12 43° 283° (WNW) 890 4.4 -12.4°
Drops below altitude 10° 18:19:28 10° 355° (N) 2,016 5.6 -13.2°
Sets 18:21:48 0° 2° (N) 2,924 6.4 -13.6°
